STARLINK-1362 (45538 NORAD) Tracking and Keplerian Element Data

This shows tracking and keplerian element data for the satellite.

Feedback or suggestion? Click here.




ElementValue
Catalog45538
NameSTARLINK-1362
Epoch Orbit1203
Epoch Day187.50002315
Epoch Year2020
RAAN53.5325
Inclination52.9997
Eccentricity0.0001721
Argument of Perigee97.7482
Mean Anonmoly190.389
Mean Motion15.05569153
Decay Rate0.00042822
L11 45538U 20025H 20187.50002315 .00042822 00000-0 29412-2 0 9996
L22 45538 52.9997 53.5325 0001721 97.7482 190.3890 15.05569153 12035

Live tracking and technical data element details for STARLINK-1362 (NORAD 45538). STARLINK-1362 can be tracked NOW for your location showing map with azimuth and elevation plus other details from your city location.

Track the satellite on the map from your city or location and see movement details for azimuth, elevation, latitude, longitude, range, height, and movement on the map or in text.







IsCatalogInMostPopularTable: catalog: 45538, numindb: 16
Update: records affected: 1



GetName: 45538 STARLINK-1362

Hit Count: updated at: Mon, 06 Jul 2020 05:45:50 GMT